Weather in Lobva

Russia / Sverdlovsk Oblast     59°10′44″N   60°29′32″E
temp.,
°C
wind,
m/s
gust,
m/s
humid.,
%
clouds,
%
prec.,
mm/h
press.,
hPa
HPBL,
m
22 january, sat
sat2223:00−9sw378952 0.0 1020176
02:00−9wsw388686 0.0 1021237
05:00−8wsw2489100 0.0 1022119
08:00−8sw2495100 0.1 1023172
11:00−8sw149096 0.1 1024134
14:00−6sw258584 0.0 1026271
17:00−11sw229511 0.0 102717
20:00−14sw249514 0.0 102962
23 january, sun
sun2323:00−16sw24975 0.0 103064
02:00−18sw22985 0.0 103128
05:00−19sw229918 0.0 103227
08:00−19wsw119875 0.0 103319
11:00−14wsw129217 0.0 103356
14:00−7wsw128596 0.0 1034122
17:00−11ssw1197100 0.0 103510
20:00−11ssw239681 0.0 103543
24 january, mon
mon2423:00−8sw2888100 0.0 1034153
02:00−7sw2786100 0.0 1035193
05:00−6sw3891100 0.0 1035238
08:00−6sw41088100 0.1 1034343
11:00−6wsw3984100 0.1 1034363
14:00−5wsw3883100 0.0 1034512
17:00−10sw22935 0.0 103421
20:00−11w279129 0.0 1033137
25 january, tue
tue2523:00−12w369119 0.0 1032143
02:00−15wsw22965 0.0 103130
05:00−14wsw279596 0.0 1029119
08:00−9wsw498265 0.0 1027305
11:00−8wsw368690 0.0 1026270
14:00−6w2493100 0.2 1025288
17:00−6wsw2691100 1.0 1025262
20:00−8wsw2588100 0.0 1025142
26 january, wed
wed2623:00−13wsw1195100 0.0 102521
02:00−13wsw1195100 0.0 102619
05:00−16wsw119750 0.0 102616
08:00−15wsw229625 0.0 102528
11:00−10wsw3108313 0.0 1025261
14:00−7wsw3979100 0.0 1024344
17:00−9wsw3880100 0.0 1025197
20:00−11wsw31082100 0.0 1026213